Location: Boncourt
(49.6160°N, 3.9448°E)
Time: 12:05:12
(UTC+00:00)

SL-16 R/B - Pass Details

Date: 09 February 2023
Orbit: 842 x 846 km, 71.0° (Epoch: 23 March)

Event Time Altitude Azimuth Distance (km) Brightness Sun altitude
Rises 18:49:58 0° 260° (W) 3,399 6.9 -19.4°
Reaches altitude 10° 18:53:08 10° 278° (W) 2,468 5.8 -19.9°
Maximum altitude 18:57:09 19° 323° (NW) 1,891 4.4 -20.5°
Drops below altitude 10° 19:01:11 10° 9° (N) 2,478 4.6 -21.2°
Enters shadow 19:03:28 - 22° (NNE) 3,127 5.0 -21.5°
